GW0861 Weather Reports


Display with metric or nautical units.
time (UTC)temp
F
wind
direction
speed
MPH
gust
MPH
rain 1hr
in
rain 24hr
in
rain mn
in
humidity
%
barometer
mb
20260504034500 47 230 6.0 10.0 0.00 0.00 0.00 54 1010.9
20260504034001 47 259 4.0 12.0 0.00 0.00 0.00 54 1010.9
20260504033500 48 231 7.0 13.0 0.00 0.00 0.00 54 1010.9
20260504033000 48 269 5.0 13.0 0.00 0.00 0.00 54 1010.9
20260504032738 48 237 5.0 10.0 0.00 0.00 0.00 54 1010.8
20260504032000 48 254 6.0 11.0 0.00 0.00 0.00 53 1010.9
20260504031500 48 265 6.0 11.0 0.00 0.00 0.00 53 1011.0
20260504031000 48 238 5.0 9.0 0.00 0.00 0.00 53 1011.0
20260504030501 48 238 5.0 10.0 0.00 0.00 0.00 52 1011.1
20260504030239 48 237 4.0 10.0 0.00 0.00 0.00 52 1011.0
20260504025459 48 254 5.0 9.0 0.00 0.00 0.00 52 1011.0
20260504025000 49 264 3.0 7.0 0.00 0.00 0.00 51 1011.1
20260504024500 49 223 4.0 9.0 0.00 0.00 0.00 51 1011.1
20260504024002 49 282 4.0 9.0 0.00 0.00 0.00 51 1011.0
20260504023500 49 244 3.0 9.0 0.00 0.00 0.00 50 1011.2
20260504023000 49 243 4.0 7.0 0.00 0.00 0.00 51 1011.1
20260504022500 49 235 4.0 7.0 0.00 0.00 0.00 50 1011.2
20260504022000 49 258 4.0 9.0 0.00 0.00 0.00 50 1011.1
20260504021500 49 282 5.0 9.0 0.00 0.00 0.00 50 1011.2
20260504021000 50 288 6.0 9.0 0.00 0.00 0.00 50 1011.1
20260504020501 50 265 5.0 12.0 0.00 0.00 0.00 49 1011.1
20260504020002 50 259 6.0 12.0 0.00 0.00 0.00 49 1011.1
20260504015500 50 227 6.0 11.0 0.00 0.00 0.00 49 1011.0
20260504015001 50 299 5.0 9.0 0.00 0.00 0.00 49 1011.0
20260504014459 50 281 5.0 10.0 0.00 0.00 0.00 48 1011.0
20260504014024 50 261 4.0 7.0 0.00 0.00 0.00 48 1010.8
20260504014013 50 252 5.0 10.0 0.00 0.00 0.00 48 1011.0
20260504013000 51 244 5.0 7.0 0.00 0.00 0.00 48 1010.8
20260504012742 51 248 3.0 7.0 0.00 0.00 0.00 48 1010.8
20260504012000 51 248 4.0 10.0 0.00 0.00 0.00 48 1010.8
20260504011500 51 295 5.0 10.0 0.00 0.00 0.00 48 1010.8
20260504011240 51 261 5.0 10.0 0.00 0.00 0.00 47 1010.7
20260504010739 51 250 5.0 12.0 0.00 0.00 0.00 47 1010.7
20260504010000 51 279 5.0 12.0 0.00 0.00 0.00 47 1010.7
20260504005740 51 276 6.0 12.0 0.00 0.00 0.00 47 1010.6
20260504005026 51 251 6.0 13.0 0.00 0.00 0.00 46 1010.6
20260504005015 51 275 7.0 12.0 0.00 0.00 0.00 47 1010.6
20260504004000 52 289 7.0 13.0 0.00 0.00 0.00 47 1010.7
20260504003500 52 259 8.0 12.0 0.00 0.00 0.00 46 1010.6
20260504003003 52 266 6.0 13.0 0.00 0.00 0.00 46 1010.6
20260504002459 52 247 8.0 13.0 0.00 0.00 0.00 46 1010.6
20260504002000 52 261 5.0 10.0 0.00 0.00 0.00 46 1010.6
20260504001500 52 265 5.0 11.0 0.00 0.00 0.00 46 1010.6
20260504001000 52 268 5.0 11.0 0.00 0.00 0.00 46 1010.4
20260504000459 52 230 7.0 11.0 0.00 0.00 0.00 45 1010.5
20260503235959 53 285 6.0 13.0 0.00 0.00 0.00 45 1010.5
20260503235740 53 251 7.0 13.0 0.00 0.00 0.00 45 1010.4
20260503235000 53 265 9.0 17.0 0.00 0.00 0.00 44 1010.4
20260503234459 53 252 9.0 17.0 0.00 0.00 0.00 44 1010.4
20260503234000 53 240 9.0 15.0 0.00 0.00 0.00 44 1010.2
20260503233500 53 250 9.0 15.0 0.00 0.00 0.00 44 1010.2
20260503233000 53 243 8.0 15.0 0.00 0.00 0.00 44 1010.2
20260503232500 53 254 6.0 15.0 0.00 0.00 0.00 43 1010.1
20260503232000 54 268 6.0 12.0 0.00 0.00 0.00 43 1010.1
20260503231459 54 292 7.0 14.0 0.00 0.00 0.00 44 1010.1
20260503231000 54 272 9.0 19.0 0.00 0.00 0.00 42 1010.0
20260503230949 54 268 10.0 20.0 0.00 0.00 0.00 43 1010.0
20260503230001 54 317 13.0 23.0 0.00 0.00 0.00 43 1009.8
20260503225500 54 299 15.0 28.0 0.00 0.00 0.00 42 1009.9
20260503225000 54 264 13.0 28.0 0.00 0.00 0.00 44 1010.0
20260503224500 53 283 10.0 18.0 0.00 0.00 0.00 44 1010.0
20260503224000 53 281 12.0 18.0 0.00 0.00 0.00 43 1009.9
20260503223501 53 275 10.0 18.0 0.00 0.00 0.00 45 1009.8
20260503223240 53 281 10.0 18.0 0.00 0.00 0.00 46 1009.9
20260503222459 53 275 12.0 23.0 0.00 0.00 0.00 45 1009.9
20260503221959 53 275 10.0 23.0 0.00 0.00 0.00 45 1010.0
20260503221500 53 259 14.0 23.0 0.00 0.00 0.00 45 1009.8
20260503220959 53 269 10.0 23.0 0.00 0.00 0.00 44 1010.0
20260503220500 53 285 14.0 23.0 0.00 0.00 0.00 45 1009.9
20260503215959 53 241 12.0 22.0 0.00 0.00 0.00 45 1010.0
20260503215758 53 248 13.0 20.0 0.00 0.00 0.00 44 1010.0
20260503215753 53 272 11.0 22.0 0.00 0.00 0.00 45 1010.0
20260503214741 53 255 12.0 20.0 0.00 0.00 0.00 45 1010.0
20260503214000 53 302 11.0 19.0 0.00 0.00 0.00 45 1010.0
20260503213459 53 279 12.0 19.0 0.00 0.00 0.00 45 1010.0
20260503212959 53 286 12.0 22.0 0.00 0.00 0.00 45 1010.0
20260503212501 53 245 16.0 22.0 0.00 0.00 0.00 44 1009.9
20260503211959 53 283 13.0 20.0 0.00 0.00 0.00 44 1009.9
20260503211459 53 279 12.0 21.0 0.00 0.00 0.00 45 1009.9
20260503210959 53 275 12.0 27.0 0.00 0.00 0.00 46 1009.9
20260503210459 53 296 15.0 27.0 0.00 0.00 0.00 44 1009.8
20260503210448 53 259 12.0 21.0 0.00 0.00 0.00 46 1009.9
20260503205739 54 293 13.0 23.0 0.00 0.00 0.00 45 1010.0
20260503205000 54 279 12.0 23.0 0.00 0.00 0.00 45 1009.9
20260503204459 54 281 14.0 24.0 0.00 0.00 0.00 45 1010.0
20260503203959 53 243 12.0 28.0 0.00 0.00 0.00 46 1010.1
20260503203738 53 296 14.0 28.0 0.00 0.00 0.00 46 1010.0
20260503203225 53 288 14.0 22.0 0.00 0.00 0.00 47 1010.2
20260503202459 53 257 13.0 22.0 0.00 0.00 0.00 46 1010.1
20260503202217 53 279 15.0 28.0 0.00 0.00 0.00 47 1010.2
20260503201726 53 258 19.0 28.0 0.00 0.00 0.00 46 1010.2
20260503200959 52 244 15.0 26.0 0.00 0.00 0.00 46 1010.2
20260503200739 52 271 14.0 29.0 0.00 0.00 0.00 46 1010.2
20260503195959 52 298 13.0 30.0 0.00 0.00 0.00 48 1010.4
20260503195500 52 296 17.0 30.0 0.00 0.00 0.00 46 1010.5
20260503195444 52 278 16.0 24.0 0.00 0.00 0.00 47 1010.1
20260503194719 52 275 18.0 24.0 0.00 0.00 0.00 47 1010.6
20260503194223 52 281 11.0 18.0 0.00 0.00 0.00 48 1010.7
20260503192723 52 265 11.0 23.0 0.00 0.00 0.00 47 1010.9
20260503192000 52 278 11.0 22.0 0.00 0.00 0.00 48 1010.9
20260503191459 52 298 11.0 22.0 0.00 0.00 0.00 46 1011.0
20260503191001 52 298 16.0 22.0 0.00 0.00 0.00 45 1011.0
20260503190458 52 310 11.0 20.0 0.00 0.00 0.00 47 1011.0
20260503185959 52 285 12.0 29.0 0.00 0.00 0.00 46 1011.0
20260503185459 52 272 12.0 29.0 0.00 0.00 0.00 47 1011.1
20260503184959 52 295 17.0 26.0 0.00 0.00 0.00 48 1011.1
20260503184459 52 250 13.0 26.0 0.00 0.00 0.00 47 1011.1
20260503184000 52 283 15.0 24.0 0.00 0.00 0.00 48 1011.2
20260503183726 53 274 14.0 23.0 0.00 0.00 0.00 47 1011.2
20260503183250 53 303 12.0 23.0 0.00 0.00 0.00 47 1011.3
20260503182532 53 302 14.0 22.0 0.00 0.00 0.00 46 1011.3
20260503182517 53 268 13.0 22.0 0.00 0.00 0.00 48 1011.3
20260503181725 53 288 12.0 21.0 0.00 0.00 0.00 47 1011.3
20260503181007 53 262 13.0 27.0 0.00 0.00 0.00 47 1011.4
20260503180001 52 276 19.0 27.0 0.00 0.00 0.00 50 1011.2
20260503175500 52 285 8.0 23.0 0.00 0.00 0.00 50 1011.4
20260503175238 52 282 15.0 23.0 0.00 0.00 0.00 47 1011.4
20260503174940 52 285 15.0 27.0 0.00 0.00 0.00 47 1011.5
20260503174226 52 265 14.0 27.0 0.00 0.00 0.00 48 1011.6
20260503173744 52 288 21.0 27.0 0.00 0.00 0.00 44 1011.5
20260503173247 52 230 9.0 21.0 0.00 0.00 0.00 49 1011.5
20260503172500 52 247 13.0 22.0 0.00 0.00 0.00 50 1011.5
20260503172439 51 298 11.0 22.0 0.00 0.00 0.00 47 1011.7
20260503171738 51 292 15.0 23.0 0.00 0.00 0.00 48 1011.6
20260503170959 51 288 11.0 26.0 0.00 0.00 0.00 49 1011.7
20260503170459 50 292 11.0 26.0 0.00 0.00 0.00 50 1011.7
20260503170220 50 326 10.0 24.0 0.00 0.00 0.00 47 1011.7
20260503150959 46 286 8.0 21.0 0.00 0.00 0.00 55 1013.0
20260503150742 47 289 15.0 20.0 0.00 0.00 0.00 53 1013.0
20260503131121 40 276 10.0 15.0 0.00 0.00 0.00 67 1013.4
20260503131059 41 286 9.0 19.0 0.00 0.00 0.00 66 1013.3
20260503110459 32 278 6.0 9.0 0.00 0.00 0.00 86 1013.2
20260503090459 34 296 7.0 11.0 0.00 0.00 0.00 83 1012.4
20260503081458 34 272 4.0 7.0 0.00 0.00 0.00 82 1012.5
20260503080958 34 286 4.0 6.0 0.00 0.00 0.00 82 1012.5
20260503080459 34 288 3.0 6.0 0.00 0.00 0.00 82 1012.5
20260503072459 34 281 5.0 9.0 0.00 0.00 0.00 82 1012.5
20260503072238 34 310 5.0 7.0 0.00 0.00 0.00 81 1012.6
20260503071742 34 283 5.0 6.0 0.00 0.00 0.00 81 1012.6
20260503070958 34 285 5.0 6.0 0.00 0.00 0.00 81 1012.6
20260503070458 34 293 4.0 9.0 0.00 0.00 0.00 81 1012.5
20260503054958 34 283 5.0 10.0 0.00 0.00 0.00 80 1012.8
20260503054457 34 281 5.0 9.0 0.00 0.00 0.00 80 1012.8
20260503053958 34 293 5.0 10.0 0.00 0.00 0.00 80 1012.8
20260503053459 34 295 5.0 10.0 0.00 0.00 0.00 80 1012.8
20260503052957 34 286 3.0 5.0 0.00 0.00 0.00 80 1012.8
20260503052458 34 292 3.0 5.0 0.00 0.00 0.00 79 1012.9
20260503051958 34 290 2.0 5.0 0.00 0.00 0.00 79 1012.9
20260503051458 34 289 3.0 5.0 0.00 0.00 0.00 79 1013.0
20260503050958 34 285 4.0 5.0 0.00 0.00 0.00 79 1013.0
20260503050511 35 285 3.0 5.0 0.00 0.00 0.00 78 1013.1
20260503045458 35 275 3.0 5.0 0.00 0.00 0.00 78 1013.2
20260503044959 35 300 2.0 3.0 0.00 0.00 0.00 77 1013.2
20260503044523 35 300 1.0 4.0 0.00 0.00 0.00 77 1013.3
20260503044512 35 300 1.0 4.0 0.00 0.00 0.00 77 1013.3
20260503043458 35 300 0.0 6.0 0.00 0.00 0.00 77 1013.3
20260503043000 35 300 2.0 6.0 0.00 0.00 0.00 76 1013.4
20260503042459 35 289 3.0 5.0 0.00 0.00 0.00 76 1013.4
20260503042001 35 292 4.0 5.0 0.00 0.00 0.00 76 1013.4
20260503041458 35 285 4.0 7.0 0.00 0.00 0.00 76 1013.4
20260503040958 35 303 5.0 9.0 0.00 0.00 0.00 76 1013.5
20260503040458 35 278 6.0 9.0 0.00 0.00 0.00 76 1013.5
20260503035958 35 345 4.0 9.0 0.00 0.00 0.00 76 1013.5
20260503035458 35 286 6.0 10.0 0.00 0.00 0.00 76 1013.5
20260503034958 35 296 5.0 10.0 0.00 0.00 0.00 76 1013.5